TimeAKST,TemperatureF,Dew PointF,Humidity,Sea Level PressureIn,VisibilityMPH,Wind Direction,Wind SpeedMPH,Gust SpeedMPH,PrecipitationIn,Events,Conditions,WindDirDegrees,DateUTC
12:53 AM,19.0,16.0,88,29.27,10.0,SSE,15.0,-,N/A,,Overcast,160,2013-01-14 09:53:00
1:53 AM,18.0,15.1,88,29.29,10.0,South,9.2,-,N/A,,Overcast,190,2013-01-14 10:53:00
3:53 AM,16.0,12.9,88,29.24,10.0,South,9.2,-,N/A,,Overcast,190,2013-01-14 12:53:00
4:53 AM,16.0,12.9,88,29.24,10.0,South,8.1,-,N/A,,Overcast,190,2013-01-14 13:53:00
5:53 AM,16.0,12.0,84,29.24,10.0,SSW,12.7,-,N/A,,Overcast,200,2013-01-14 14:53:00
6:53 AM,14.0,10.9,88,29.22,10.0,SSW,9.2,-,0.00,,Overcast,200,2013-01-14 15:53:00
7:53 AM,14.0,10.0,84,29.24,6.0,SSW,10.4,-,0.00,Snow,Light Snow,210,2013-01-14 16:53:00
8:53 AM,12.9,9.0,84,29.25,7.0,SSW,9.2,-,0.00,Snow,Light Snow,210,2013-01-14 17:53:00
9:28 AM,14.0,10.4,86,29.25,9.0,SSW,5.8,-,0.00,,Overcast,210,2013-01-14 18:28:00
9:53 AM,12.9,10.9,92,29.26,5.0,South,5.8,-,0.00,Snow,Light Snow,180,2013-01-14 18:53:00
10:53 AM,14.0,12.0,92,29.30,4.0,South,10.4,-,0.00,Snow,Light Snow,190,2013-01-14 19:53:00
11:28 AM,14.0,12.2,93,29.32,9.0,South,10.4,-,0.00,,Overcast,180,2013-01-14 20:28:00
11:53 AM,15.1,12.0,88,29.32,5.0,South,8.1,-,0.00,,Overcast,190,2013-01-14 20:53:00
12:53 PM,14.0,12.0,92,29.37,2.5,South,13.8,-,0.00,Snow,Light Snow,190,2013-01-14 21:53:00
1:53 PM,15.1,12.9,91,29.40,1.0,SSW,13.8,-,0.00,Snow,Light Snow,200,2013-01-14 22:53:00
2:35 PM,15.8,14.0,93,29.41,0.8,SSW,15.0,-,0.00,Snow,Light Snow,200,2013-01-14 23:35:00
2:51 PM,15.8,12.2,86,29.43,1.5,SSW,16.1,-,0.00,Snow,Light Snow,200,2013-01-14 23:51:00
2:53 PM,15.1,12.0,88,29.43,1.0,SSW,17.3,-,0.00,Snow,Light Snow,200,2013-01-14 23:53:00
3:48 PM,15.8,12.2,86,29.45,0.5,SW,24.2,32.2,0.00,Fog-Snow,Snow,220,2013-01-15 00:48:00
3:53 PM,12.9,12.9,100,29.45,0.5,SW,25.3,32.2,0.00,Snow,Snow,230,2013-01-15 00:53:00
4:17 PM,12.2,10.4,92,29.48,1.5,SW,23.0,-,0.00,Snow,Light Snow,220,2013-01-15 01:17:00
4:53 PM,12.9,10.0,88,29.51,1.5,SW,17.3,-,0.00,Snow,Light Snow,230,2013-01-15 01:53:00
4:55 PM,12.2,10.4,92,29.50,3.0,SW,18.4,-,0.00,Snow,Light Snow,230,2013-01-15 01:55:00
5:33 PM,12.2,8.6,85,29.53,1.5,SW,10.4,-,0.00,Snow,Light Snow,230,2013-01-15 02:33:00
5:46 PM,12.2,8.6,85,29.54,1.5,SW,16.1,20.7,0.00,Snow,Light Snow,230,2013-01-15 02:46:00
5:53 PM,12.0,7.0,80,29.55,1.5,SW,16.1,-,0.00,Snow,Light Snow,230,2013-01-15 02:53:00
6:48 PM,12.2,8.6,85,29.59,3.0,SW,18.4,-,0.00,Snow,Light Snow,220,2013-01-15 03:48:00
6:53 PM,10.9,7.0,84,29.59,3.0,SW,17.3,-,0.00,Snow,Low Drifting Snow,220,2013-01-15 03:53:00
7:03 PM,10.4,6.8,85,29.59,3.0,SSW,18.4,-,N/A,Snow,Blowing Snow,210,2013-01-15 04:03:00
7:53 PM,9.0,3.9,80,29.63,6.0,SSW,12.7,-,N/A,Snow,Low Drifting Snow,210,2013-01-15 04:53:00
8:44 PM,8.6,5.0,85,29.66,7.0,SSW,13.8,-,N/A,,Mostly Cloudy,210,2013-01-15 05:44:00
8:53 PM,9.0,5.0,84,29.68,4.0,SSW,11.5,-,0.00,Snow,Light Snow,200,2013-01-15 05:53:00
9:53 PM,9.0,3.9,80,29.70,10.0,SSW,13.8,-,0.00,,Overcast,210,2013-01-15 06:53:00
10:53 PM,9.0,5.0,84,29.73,8.0,SW,16.1,-,N/A,,Overcast,220,2013-01-15 07:53:00
11:53 PM,8.1,3.9,83,29.75,5.0,SW,12.7,-,0.00,Snow,Light Snow,230,2013-01-15 08:53:00